LiveATC.Net - Listen to live air traffic control over the Internet!


ICAO: YPDN  IATA: DRW   Airport: Darwin International Airport
City: Darwin   State/Province: Northern Territory
Country: Australia   Continent: Oceania
YPDN METAR Weather: YPDN 281747Z AUTO 23015KT 9999 // SCT012 SCT016 BKN022 26/23 Q1006
YPDN ADS-B Flight Tracking (ADSBExchange)
YPDN Flight Activity (FlightAware)

YPDN Gnd/Twr/App/Dep
Feed Status: UP   Listeners: 4
Listen in your browser - HTML5 player (in browser, HTML5)
Click here to listen with your own player (launches your MP3 player)
Archive Access: YPDN Gnd/Twr/App/Dep
FacilityFrequency
Darwin Approach134.100
Darwin Arrival125.200
Darwin Departure119.550
Darwin Ground121.800
Darwin Tower133.100

NOTICE

Unauthorized use prohibited. See LiveATC.net Terms of Service


Airport/ARTCC Code
Frequency Search
(e.g., 124.400, 128.75)
Site-wide search
 


Browse Feeds
Top 50 Feeds
HF Oceanic Feeds
Coverage Map
Bad Weather Areas

LiveATC FAQ
Offer LiveATC feed
Contact LiveATC.net
Press Inquiries

LiveATC on iPhone
LiveATC on Android

LiveATC Mobile
(Mobile browser)

ATC Audio Archives
Interesting Recordings

LiveATC Forums


Home Page
About LiveATC.net


Terms of Use
Privacy Policy

AIRMETs/SIGMETs

FAA Airport Status
NAS Status
Arrival Demand


Server Software By:
Icecast.org
Liquidsoap